Powrót do katalogu

SL-14 DEB

AktywnyPO
NORAD 45327·DEBRIS·🇷🇺 Russia

Wystrzelony Aug 15, 1991 z Plesetsk Cosmodrome

Loading…

Następne Przeloty (najbliższe 24 godziny)

TLE

ŚwieżeSource: Space-Track

Epoka: Sep 14, 2026, 14:00 UTC

1 45327U 91056BR  26257.58379294  .00001194  00000-0  21050-2 0  9996
2 45327  82.5656  16.7127 0073809 344.9859  14.9085 13.41005410321516

Śledź SL-14 DEB w czasie rzeczywistym z AllMySat

Download on the App Store